STARLINK-11436, 62887

Orbit data source: Space-Track

STARLINK-11436, 62887 is a payload satellite owned by SpaceX/Seattle (US) in LEO that was launched on Tue, 04 Feb 2025 UTC via an FALCON 9 launch vehicle from the Air Force Eastern Test Range (AFETR). Payload-class satellites include a variety of spacecraft equipped with specific instruments for various scientific and technological missions. These include communications satellites like Starlink; space stations such as the ISS; scientific satellites like the Hubble; Earth observation satellites from companies like Planet Labs, Umbra, and HawkEye 360; GPS; miniature CubeSats for education and research; and military/defense satellites.

Loading next visibility...
Identifier
62887, 2025-024J
Orbit
LEO
Last TLE update
9 hours ago
Origin
Manufacturer
SpaceX/Seattle
Mission
Operational Commercial Communications
Bus & Motor
STARLINK V2M, Unknown motor
Mass
730 kg wet, ~700 kg dry
Launch date (UTC)
2025-02-04 (5 months ago)
Launch vehicle
FALCON 9
Launch site
Air Force Eastern Test Range (AFETR)
Object type
Payload
Rocket body
Debris
Shape & HBR
Box + 2 Pan, 29 m
Radar Cross Section
36.964 m², Large (>1 m²)

Expand to show TLE details & history

TLE from 9 hours ago
0 STARLINK-11436
1 62887U 25024J   25183.46550111  .00151024  00000-0  11576-2 0  9991
2 62887  43.0032 249.6519 0003024 273.2797  86.7724 15.70870034 24114
Epoch: 2025-07-02T11:10Z
TLE epoch observation values (Epoch: 2025-07-02T11:10:19.295Z)
Latitude
-0.00009°
Longitude
161.3252°
Altitude
356.067 km
Speed
7.697 km/s
True Right ascension
16h 38m 36s
True Declination
0° 00' 00"
Sunlit
Object was in full shadow at epoch
Visualization orbit readout
Latitude
-37.18751°
Longitude
105.09719°
Altitude
365.079 km
Speed
7.692 km/s
Apparent Right ascension
16h 07m 12s
Apparent Declination
-51° 54' 04"
Sunlit
Object is in daylight
Visualization observer readout
Local Sidereal Time
07:47:50
Azimuth
126.694° SE
Elevation
-50.834°
Doppler factor
1
Orbital elements
Apogee altitude
360.427 km
Perigee altitude
356.353 km
Semi-major axis
6,736.527 km
Eccentricity
0.0003
Inclination
43.0032°
RAAN
249.6519°
Arg. of periapsis
273.2797°
True anomaly
Unknown
Mean anomaly
86.7724°
Eccentric anomaly
Unknown
Mean motion
3.92545 °/min
Orbital period
91.71 mins
BSTAR
0.0011576
Loading maneuver chart data...
Loading SW <> Apogee altitude chart data...
Loading historical data...
Loading historical data...
Loading historical data...
Loading historical data...
Loading historical data...
Loading historical data...
Loading historical data...

STARLINK-11436 Visibility forecast

Observer location: undefined°, undefined°

Span
Click to sort rows by Start time (UTC) header in descending order
Start Az.
Max El. time (UTC)
Max El. Az.
Max El.
End time (UTC)
End Az.
4 mins2025-07-03 08:48:52.333Z256.041° W2025-07-03 08:49:52.333Z278.104° WNW44.26°2025-07-03 08:52:52.333Z71.13° E
4 mins2025-07-03 10:24:52.333Z299.761° NW2025-07-03 10:25:52.333Z332.519° NNW32.487°2025-07-03 10:28:52.333Z71.998° E
4 mins2025-07-03 12:00:52.333Z291.779° WNW2025-07-03 12:02:52.333Z79.364° E42.687°2025-07-03 12:04:52.333Z103.385° ESE
|